Weather History for Springfield, IL

Change the Weather History Date:

Thursday, December 5, 2013

  Actual Average Record
Temperature  
Mean Temperature 29 °F 34 °F  
Max Temperature 37 °F 42 °F 67 °F (1956)
Min Temperature 21 °F 26 °F 4 °F (1895)
Degree Days  
Heating Degree Days 36 31  
Month to date heating degree days 122 152  
Since 1 July heating degree days 1304 1220  
Cooling Degree Days 0 0  
Month to date cooling degree days 0 0  
Year to date cooling degree days 1145 1122  
Moisture  
Dew Point 16 °F    
Average Humidity 71    
Maximum Humidity 82    
Minimum Humidity 59    
Precipitation  
Precipitation T in 0.09 in 1.66 in (1906)
Month to date precipitation T 0.47  
Year to date precipitation 36.75 35.38  
Snow  
Snow T in 0.10 in 6.00 in (1882)
Month to date snowfall T 0.6  
Since 1 July snowfall 0.7 1.2  
Snow Depth 0.00 in    
Sea Level Pressure  
Sea Level Pressure 30.14 in    
Wind  
Wind Speed 13 mph (NW)    
Max Wind Speed 22 mph    
Max Gust Speed 29 mph    
Visibility 10 miles    
Events      
T = Trace of Precipitation, MM = Missing Value Source: NWS Daily Summary

Daily Weather History Graph

Daily Weather History Graph

Search for Another Location

Airport:

Trip Planner

Search our weather history database for the weather conditions in past years. The results will help you decide how hot, cold, wet, or windy it might be!

Date:

Astronomy

Dec. 05, 2013 Rise Set
Actual Time 7:05 AM CST 4:33 PM CST
Civil Twilight 6:34 AM CST 5:03 PM CST
Nautical Twilight 6:01 AM CST 5:37 PM CST
Astronomical Twilight 5:28 AM CST 6:10 PM CST
Moon 9:25 AM CST (12/5) 7:54 PM CST (12/5)
Length of Visible Light 10h 29m
Length of Day
9h 28m
Waxing Crescent, 11% of the Moon is Illuminated
Dec 5
Waxing Crescent
Dec 9
First Quarter
Dec 17
Full
Dec 25
Last Quarter
Jan 1
New

Hourly Weather History & Observations

Time (CST) Temp. Windchill Dew Point Humidity Pressure Visibility Wind Dir Wind Speed Gust Speed Precip Events Conditions
12:52 AM 34.0 °F 23.0 °F 28.0 °F 79% 29.87 in 10.0 mi West 18.4 mph - N/A   Overcast
1:52 AM 32.0 °F 21.2 °F 26.1 °F 79% 29.89 in 10.0 mi West 16.1 mph 24.2 mph N/A   Overcast
2:52 AM 30.9 °F 21.2 °F 25.0 °F 79% 29.94 in 10.0 mi WNW 12.7 mph - N/A   Overcast
3:52 AM 28.9 °F 17.7 °F 23.0 °F 78% 29.95 in 10.0 mi WNW 15.0 mph 23.0 mph N/A   Overcast
4:52 AM 28.0 °F 17.5 °F 21.0 °F 75% 30.02 in 10.0 mi West 12.7 mph 24.2 mph N/A   Overcast
5:23 AM 26.6 °F 14.7 °F 19.4 °F 74% 30.01 in 10.0 mi WNW 15.0 mph - N/A   Overcast
5:52 AM 27.0 °F 16.7 °F 19.0 °F 72% 30.03 in 10.0 mi WNW 11.5 mph 20.7 mph N/A   Overcast
6:14 AM 26.6 °F 14.7 °F 19.4 °F 74% 30.04 in 10.0 mi WNW 15.0 mph - N/A   Overcast
6:52 AM 26.1 °F 14.5 °F 18.0 °F 71% 30.07 in 10.0 mi WNW 13.8 mph - N/A   Overcast
7:11 AM 26.6 °F 14.3 °F 17.6 °F 69% 30.07 in 10.0 mi WNW 16.1 mph - N/A   Mostly Cloudy
7:52 AM 26.1 °F 15.6 °F 18.0 °F 71% 30.10 in 10.0 mi NW 11.5 mph - N/A   Mostly Cloudy
8:05 AM 24.8 °F 12.9 °F 17.6 °F 74% 30.10 in 10.0 mi NW 13.8 mph 21.9 mph N/A   Scattered Clouds
8:21 AM 26.6 °F 13.8 °F 17.6 °F 69% 30.11 in 10.0 mi NW 17.3 mph 25.3 mph N/A   Mostly Cloudy
8:52 AM 25.0 °F 12.2 °F 17.1 °F 72% 30.13 in 10.0 mi WNW 16.1 mph 23.0 mph N/A   Mostly Cloudy
9:09 AM 24.8 °F 11.1 °F 14.0 °F 64% 30.12 in 10.0 mi NW 18.4 mph 24.2 mph N/A   Scattered Clouds
9:52 AM 25.0 °F 13.6 °F 15.1 °F 66% 30.17 in 10.0 mi NW 12.7 mph 20.7 mph N/A   Mostly Cloudy
10:52 AM 24.1 °F 12.5 °F 12.9 °F 62% 30.17 in 10.0 mi WNW 12.7 mph - N/A   Clear
11:52 AM 24.1 °F 12.0 °F 12.9 °F 62% 30.17 in 10.0 mi WNW 13.8 mph - N/A   Clear
12:52 PM 23.0 °F 11.7 °F 12.0 °F 63% 30.19 in 10.0 mi NW 11.5 mph - N/A   Scattered Clouds
1:52 PM 24.1 °F 14.4 °F 12.0 °F 60% 30.21 in 10.0 mi NW 9.2 mph - N/A   Clear
2:52 PM 24.1 °F 13.7 °F 12.9 °F 62% 30.21 in 10.0 mi WNW 10.4 mph - N/A   Mostly Cloudy
3:52 PM 24.1 °F 14.4 °F 12.0 °F 60% 30.22 in 10.0 mi WNW 9.2 mph - N/A   Overcast
4:52 PM 23.0 °F 12.4 °F 12.0 °F 63% 30.27 in 10.0 mi WNW 10.4 mph - N/A   Overcast
5:52 PM 23.0 °F 11.7 °F 10.9 °F 60% 30.28 in 10.0 mi NW 11.5 mph - N/A   Overcast
6:52 PM 23.0 °F 11.1 °F 10.9 °F 60% 30.27 in 10.0 mi NW 12.7 mph - N/A   Overcast
7:52 PM 21.9 °F 9.2 °F 10.0 °F 60% 30.27 in 10.0 mi NNW 13.8 mph - N/A   Overcast
8:52 PM 21.9 °F 9.2 °F 10.0 °F 60% 30.28 in 10.0 mi NNW 13.8 mph - 0.00 in   Scattered Clouds
9:52 PM 21.9 °F 11.7 °F 10.0 °F 60% 30.32 in 10.0 mi NNW 9.2 mph - N/A   Overcast
10:52 PM 21.9 °F 9.8 °F 10.0 °F 60% 30.32 in 10.0 mi NNW 12.7 mph - N/A   Mostly Cloudy
11:52 PM 21.0 °F 9.9 °F 10.0 °F 63% 30.31 in 10.0 mi NNW 10.4 mph - N/A   Mostly Cloudy